Home   Weather   Yuzhno-Sakhalinsk   Past weeks

Flag for Russia Past Weather in Yuzhno-Sakhalinsk, Russia — Yesterday and Last 2 Weeks

Now
9 °F

Passing clouds.


Feels Like: -8 °F
Forecast: -7 / 19 °F
Wind: 15 mph from North

Location: Yuzhno Airport-Sakhalinsk

Current Time: Jan 24, 2017 at 2:26:47 pm

Latest Report: Jan 24, 2017 at 1:30 pm


Visibility: N/A

Pressure: 29.95 "Hg

Humidity: 61%

Dew Point: -2 °F

Location of Yuzhno-SakhalinskLocation

Past Weather in Yuzhno-Sakhalinsk — Graph

°F

Yuzhno-Sakhalinsk Temperature Yesterday

Maximum temperature yesterday: 7 °F (at 2:00 pm)
Minimum temperature yesterday: -2 °F (at 9:30 pm)
Average temperature yesterday: 3 °F

High & Low Weather Summary for the Past Weeks

 TemperatureHumidityPressure
High32 °F (Jan 15, 11:00 am)100% (Jan 9, 7:30 pm)30.33 "Hg (Jan 9, 7:30 pm)
Low-18 °F (Jan 24, 6:00 am)53% (Jan 10, 4:00 pm)29.18 "Hg (Jan 12, 6:00 am)
Average14 °F83%29.84 "Hg
* Reported Jan 9 1:00 pm — Jan 24 1:30 pm, Yuzhno-Sakhalinsk, Weather by CustomWeather, © 2017

Note: Actual official high and low records may vary slightly from our data, if they occured in-between our weather recording intervals... More about our weather records

Advertising

Yuzhno-Sakhalinsk Weather History for the Previous 24 Hours

Scroll right to see more
 ConditionsComfort  
Time TempWeatherWind HumidityBarometerVisibility
1:30 pm
Tue, Jan 24
9 °FPassing clouds.15 mph61%29.95 "HgN/A
1:00 pm7 °FPassing clouds.20 mph61%29.98 "HgN/A
12:30 pm5 °FClear.13 mph66%29.98 "HgN/A
12:00 pm1 °FClear.8 mph71%29.98 "HgN/A
11:30 am-2 °FClear.1 mph84%29.98 "Hg4 mi
11:00 am-6 °FClear.1 mph84%29.98 "Hg4 mi
10:30 am-9 °FClear.1 mph84%29.98 "Hg4 mi
10:00 am-13 °FClear.3 mph76%29.98 "Hg5 mi
9:30 am-13 °FClear.1 mph83%29.98 "Hg6 mi
9:00 am-18 °FClear.No wind75%29.98 "HgN/A
8:30 am-17 °FClear.1 mph83%29.98 "HgN/A
8:00 am-15 °FClear.1 mph76%29.95 "HgN/A
7:30 am-15 °FClear.1 mph76%29.95 "HgN/A
7:00 am-17 °FClear.3 mph83%29.95 "HgN/A
6:30 am-17 °FClear.1 mph76%29.95 "HgN/A
6:00 am-18 °FClear.1 mph75%29.95 "HgN/A
5:00 am-15 °FClear.1 mph76%29.95 "HgN/A
4:00 am-8 °FClear.6 mph84%29.95 "HgN/A
3:00 am-6 °FClear.3 mph77%29.95 "HgN/A
2:00 am-6 °FClear.8 mph77%29.95 "HgN/A
1:00 am-6 °FClear.6 mph84%29.98 "HgN/A
12:00 am-6 °FClear.6 mph92%29.98 "HgN/A
11:00 pm
Mon, Jan 23
-2 °FClear.8 mph84%29.98 "HgN/A
10:30 pm-2 °FClear.8 mph84%29.98 "HgN/A
10:00 pm-2 °FClear.6 mph84%29.95 "HgN/A
9:30 pm-2 °FClear.8 mph84%29.95 "HgN/A
9:00 pm0 °FClear.10 mph84%29.95 "HgN/A
8:30 pm1 °FClear.13 mph78%29.95 "HgN/A
8:00 pm1 °FClear.13 mph85%29.95 "HgN/A
7:30 pm3 °FLow level haze.10 mph78%29.95 "HgN/A
7:00 pm3 °FLow level haze.10 mph78%29.95 "HgN/A
6:30 pm3 °FLow level haze.13 mph78%29.95 "HgN/A
6:00 pm5 °FLow level haze.15 mph72%29.95 "HgN/A
5:30 pm5 °FLow level haze.10 mph72%29.92 "HgN/A
5:00 pm7 °FLow level haze.15 mph72%29.92 "HgN/A
4:30 pm7 °FLow level haze.15 mph72%29.92 "HgN/A
4:00 pm7 °FLow level haze.15 mph78%29.92 "HgN/A
3:30 pm7 °FLow level haze.15 mph78%29.92 "HgN/A
3:00 pm7 °FLow level haze.15 mph78%29.92 "HgN/A
2:30 pm7 °FLow level haze.15 mph78%29.92 "HgN/A
2:00 pm7 °FLow level haze.15 mph72%29.95 "Hg5 mi
Weather by CustomWeather, © 2017

See weather overviewHow to use our weather pages